Location: ActonStarParty
(42.4766°N, 71.4538°W)
Time: 12:38:09
(UTC-04:00)

ATLAS 5 CENTAUR R/B - Visible Passes

Search period start: 21 May 2018 00:00
Search period end: 31 May 2018 00:00
Orbit: 344 x 14359 km, 60.9° (Epoch: 06 April)

Date Brightness Start Highest point End Pass type
(mag) Time Alt. Az. Time Alt. Az. Time Alt. Az.
21 May 5.4 04:43:27 10° SE 04:48:10 22° E 04:58:52 10° NE visible
21 May 9.1 18:39:30 10° NW 19:14:36 24° W 20:16:19 10° WSW visible
23 May 9.8 19:56:11 10° WNW 20:06:16 11° WNW 20:17:53 10° WNW visible
24 May 5.8 03:54:42 10° E 03:57:44 12° ENE 04:02:08 10° ENE visible
29 May 5.2 03:55:43 10° SE 04:00:21 22° E 04:10:58 10° NE visible
